Regional Weather Roundup
Issued by NWS Albany, NY

Home | Current Version | Previous Version | Text Only | Print | Product List | Glossary On
Versions: 1 2 3 4 5 6 7 8 9 10 11 12 13 14 15 16 17 18 19 20 21 22 23 24 25 26 27
000
ASUS41 KALY 200010
RWRALY

NEW YORK STATE HOURLY WEATHER ROUNDUP
NATIONAL WEATHER SERVICE ALBANY NY
700 PM EST SUN FEB 19 2017

NOTE: "FAIR" INDICATES FEW OR NO CLOUDS BELOW 12,000 FEET WITH NO
SIGNIFICANT WEATHER AND/OR NO OBSTRUCTIONS TO VISIBILITY.

NYZ032-033-038>043-046>054-057>066-NYZ062>081-082-084-200100-
EAST


CITY           SKY/WX    TMP DP  RH WIND       PRES   REMARKS
ALBANY         PTCLDY    48  31  51 W12       29.91R
GLENS FALLS    CLOUDY    50  29  44 NW7       29.88R
POUGHKEEPSIE   CLEAR     50  27  40 W6        29.88R
NEWBURGH       CLEAR     52  30  43 NW8       29.90R
MONTGOMERY     CLEAR     41  30  65 CALM      29.88R
WHITE PLAINS   CLEAR     51  28  41 NW6       29.88R
ISLIP          PTCLDY    56  30  37 NW10      29.87R
NEW YORK CITY  CLEAR     56  32  40 NW7       29.88R
CENTRAL PARK   CLEAR     61  29  29 CALM      29.91R
$$

NYZ005>009-017-018-044>046-055-056-200100-
CENTRAL


CITY           SKY/WX    TMP DP  RH WIND       PRES   REMARKS
FULTON         CLEAR     44  32  62 NW12      29.97R
SYRACUSE       PTCLDY    43  33  68 NW10      29.97R
ROME           CLEAR     38  32  79 NW5       29.96R WCI  34
ELMIRA         CLEAR     44  28  53 NW5       29.97R
BINGHAMTON     CLEAR     46  30  53 NW8       29.93R
MONTICELLO     CLEAR     46  30  53 NW6       29.92R
$$

NYZ026>034-041>043-087-200100-
NORTH


CITY           SKY/WX    TMP DP  RH WIND       PRES   REMARKS
WATERTOWN      CLOUDY    39  34  82 NW7       29.96R WCI  34
FORT DRUM      NOT AVBL
OGDENSBURG     CLOUDY    44  31  60 NW6       29.95R
MASSENA        CLOUDY    43  31  62 NW7       29.96R
SARANAC LAKE   CLOUDY    39  28  64 VRB5      29.87R
PLATTSBURGH    CLOUDY    45  29  53 NW7       29.89R
$$

NYZ001>004-010>016-019>021-085-200100-
WEST


CITY           SKY/WX    TMP DP  RH WIND       PRES   REMARKS
NIAGARA FALLS  CLEAR     45  31  58 NW12      30.04R
BUFFALO        PTCLDY    37  32  82 SW7       30.05R WCI  32
DUNKIRK        CLEAR     42  35  76 W12       30.08R
JAMESTOWN      CLEAR     45  32  61 W9        30.05R
WELLSVILLE     CLEAR     47  30  51 NW14      30.01R
ROCHESTER      PTCLDY    46  32  58 NW9       30.02R
PENN YAN       CLEAR     51  33  50 W9        29.99R
$$

             KEY
       WCI = WIND CHILL INDEX
       VSB = VISIBILITY
       HX  = HEAT INDEX
$$




USA.gov is the U.S. government's official web portal to all federal, state and local government web resources and services.